EW7658 Weather Reports


Display with metric or nautical units.
time (UTC)temp
F
wind
direction
speed
MPH
gust
MPH
rain 1hr
in
rain 24hr
in
rain mn
in
humidity
%
barometer
mb
20260510204024 72 0 0.0 1.0 0.00 0.00 0.00 41 1020.5
20260510203524 72 0 0.0 1.0 0.00 0.00 0.00 37 1020.4
20260510203039 72 0 0.0 0.0 0.00 0.00 0.00 38 1020.3
20260510202525 73 0 0.0 0.0 0.00 0.00 0.00 41 1020.3
20260510202024 72 0 0.0 0.0 0.00 0.00 0.00 40 1020.3
20260510201538 71 0 0.0 0.0 0.00 0.00 0.00 40 1020.3
20260510201024 70 0 0.0 0.0 0.00 0.00 0.00 41 1020.4
20260510200527 70 0 0.0 0.0 0.00 0.00 0.00 43 1020.2
20260510200037 70 0 0.0 0.0 0.00 0.00 0.00 44 1020.3
20260510195524 70 0 0.0 0.0 0.00 0.00 0.00 42 1020.3
20260510195024 70 0 0.0 0.0 0.00 0.00 0.00 43 1020.4
20260510194534 71 0 0.0 0.0 0.00 0.00 0.00 40 1020.5
20260510194024 70 0 0.0 0.0 0.00 0.00 0.00 41 1020.6
20260510193525 70 0 0.0 7.0 0.00 0.00 0.00 42 1020.5
20260510193036 70 0 0.0 7.0 0.00 0.00 0.00 42 1020.6
20260510192525 71 89 0.0 0.0 0.00 0.00 0.00 43 1020.8
20260510192025 70 0 0.0 0.0 0.00 0.00 0.00 44 1020.7
20260510191545 70 0 0.0 0.0 0.00 0.00 0.00 41 1020.7
20260510191025 69 0 0.0 0.0 0.00 0.00 0.00 43 1020.6
20260510190529 69 0 0.0 0.0 0.00 0.00 0.00 43 1020.6
20260510190041 68 0 0.0 0.0 0.00 0.00 0.00 43 1020.7
20260510185525 68 0 0.0 1.0 0.00 0.00 0.00 43 1020.6
20260510185029 67 0 0.0 1.0 0.00 0.00 0.00 46 1020.5
20260510184537 67 0 0.0 0.0 0.00 0.00 0.00 44 1020.5
20260510184024 67 0 0.0 3.0 0.00 0.00 0.00 42 1020.5
20260510183524 67 0 0.0 3.0 0.00 0.00 0.00 44 1020.5
20260510183043 68 58 0.0 0.0 0.00 0.00 0.00 46 1020.5
20260510182528 67 0 0.0 0.0 0.00 0.00 0.00 45 1020.4
20260510182026 67 0 0.0 0.0 0.00 0.00 0.00 43 1020.4
20260510181545 68 0 0.0 0.0 0.00 0.00 0.00 43 1020.4
20260510181025 68 0 0.0 0.0 0.00 0.00 0.00 44 1020.5
20260510180524 68 0 0.0 0.0 0.00 0.00 0.00 46 1020.4
20260510180043 68 0 0.0 0.0 0.00 0.00 0.00 45 1020.3
20260510175524 68 0 0.0 0.0 0.00 0.00 0.00 45 1020.4
20260510175025 68 0 0.0 0.0 0.00 0.00 0.00 42 1020.5
20260510174543 68 0 0.0 0.0 0.00 0.00 0.00 43 1020.5
20260510174025 69 0 0.0 0.0 0.00 0.00 0.00 42 1020.6
20260510173524 68 0 0.0 1.0 0.00 0.00 0.00 44 1020.6
20260510173035 68 0 0.0 1.0 0.00 0.00 0.00 44 1020.6
20260510172524 67 0 0.0 1.0 0.00 0.00 0.00 46 1020.7
20260510172026 66 0 0.0 3.0 0.00 0.00 0.00 47 1020.5
20260510171538 65 0 0.0 3.0 0.00 0.00 0.00 49 1020.8
20260510171024 65 0 0.0 3.0 0.00 0.00 0.00 48 1020.9
20260510170524 65 0 0.0 0.0 0.00 0.00 0.00 50 1020.8
20260510170037 66 0 0.0 0.0 0.00 0.00 0.00 48 1020.8
20260510165525 66 0 0.0 1.0 0.00 0.00 0.00 52 1020.9
20260510165024 65 0 0.0 1.0 0.00 0.00 0.00 51 1020.9
20260510164603 66 0 0.0 0.0 0.00 0.00 0.00 55 1020.9
20260510164025 64 0 0.0 0.0 0.00 0.00 0.00 61 1020.8
20260510163526 63 0 0.0 0.0 0.00 0.00 0.00 61 1020.9
20260510163044 63 0 0.0 0.0 0.00 0.00 0.00 64 1021.0
20260510162524 63 0 0.0 0.0 0.00 0.00 0.00 63 1020.9
20260510162026 62 0 0.0 0.0 0.00 0.00 0.00 64 1020.8
20260510161538 62 0 0.0 2.0 0.00 0.00 0.00 64 1021.0
20260510161024 62 0 0.0 2.0 0.00 0.00 0.00 64 1020.9
20260510160526 62 111 0.0 0.0 0.00 0.00 0.00 66 1020.9
20260510160037 62 0 0.0 0.0 0.00 0.00 0.00 66 1020.9
20260510155526 62 0 0.0 0.0 0.00 0.00 0.00 65 1021.1
20260510155024 62 0 0.0 0.0 0.00 0.00 0.00 64 1021.0
20260510154538 62 0 0.0 0.0 0.00 0.00 0.00 68 1020.9
20260510154025 61 0 0.0 0.0 0.00 0.00 0.00 68 1021.0
20260510153523 60 0 0.0 0.0 0.00 0.00 0.00 70 1020.9
20260510153047 60 0 0.0 0.0 0.00 0.00 0.00 70 1021.0
20260510152525 60 0 0.0 0.0 0.00 0.00 0.00 72 1020.9
20260510152024 59 0 0.0 0.0 0.00 0.00 0.00 73 1020.9
20260510151539 58 0 0.0 0.0 0.00 0.00 0.00 72 1020.8
20260510151026 58 0 0.0 0.0 0.00 0.00 0.00 74 1020.6
20260510150525 58 0 0.0 0.0 0.00 0.00 0.00 76 1020.6
20260510150043 58 0 0.0 0.0 0.00 0.00 0.00 76 1020.4
20260510145527 58 0 0.0 0.0 0.00 0.00 0.00 75 1020.5
20260510145024 58 0 0.0 0.0 0.00 0.00 0.00 76 1020.6
20260510144547 58 0 0.0 0.0 0.00 0.00 0.00 76 1020.5
20260510144024 58 0 0.0 0.0 0.00 0.00 0.00 76 1020.6
20260510143524 58 0 0.0 0.0 0.00 0.00 0.00 76 1020.5
20260510143037 58 0 0.0 0.0 0.00 0.00 0.00 76 1020.5
20260510142527 58 0 0.0 0.0 0.00 0.00 0.00 77 1020.2
20260510142026 58 0 0.0 0.0 0.00 0.00 0.00 78 1020.3
20260510141535 58 0 0.0 0.0 0.00 0.00 0.00 78 1020.5
20260510141026 58 0 0.0 0.0 0.00 0.00 0.00 78 1020.2
20260510140527 58 0 0.0 0.0 0.00 0.00 0.00 81 1020.1
20260510140040 57 0 0.0 0.0 0.00 0.00 0.00 81 1019.8
20260510135524 57 0 0.0 0.0 0.00 0.00 0.00 81 1019.7
20260510135025 56 0 0.0 0.0 0.00 0.00 0.00 81 1019.5
20260510134547 56 0 0.0 0.0 0.00 0.00 0.00 81 1019.4
20260510134025 57 0 0.0 0.0 0.00 0.00 0.00 82 1019.6
20260510133527 57 0 0.0 0.0 0.00 0.00 0.00 80 1019.7
20260510133037 57 0 0.0 0.0 0.00 0.00 0.00 80 1019.5
20260510132525 57 0 0.0 0.0 0.00 0.00 0.00 80 1019.5
20260510132025 57 0 0.0 0.0 0.00 0.00 0.00 85 1019.6
20260510131537 57 0 0.0 0.0 0.00 0.00 0.00 84 1019.7
20260510131025 57 0 0.0 0.0 0.00 0.00 0.00 86 1019.6
20260510130525 56 0 0.0 0.0 0.00 0.00 0.00 84 1019.4
20260510130037 55 0 0.0 0.0 0.00 0.00 0.00 86 1019.2
20260510125523 55 0 0.0 0.0 0.00 0.00 0.00 86 1019.2
20260510125024 54 0 0.0 0.0 0.00 0.00 0.00 86 1019.3
20260510124540 54 0 0.0 0.0 0.00 0.00 0.00 88 1019.2
20260510124024 54 0 0.0 0.0 0.00 0.00 0.00 89 1019.1
20260510123524 53 0 0.0 0.0 0.00 0.00 0.00 88 1019.0
20260510123038 53 0 0.0 0.0 0.00 0.00 0.00 89 1018.9
20260510122523 53 0 0.0 0.0 0.00 0.00 0.00 90 1018.6
20260510122026 53 0 0.0 0.0 0.00 0.00 0.00 90 1018.6
20260510121538 53 0 0.0 0.0 0.00 0.00 0.00 90 1018.5
20260510121025 53 0 0.0 0.0 0.00 0.00 0.00 91 1018.4
20260510120525 53 0 0.0 0.0 0.00 0.00 0.00 93 1018.4
20260510120037 52 0 0.0 0.0 0.00 0.00 0.00 92 1018.5
20260510115524 52 0 0.0 0.0 0.00 0.00 0.00 92 1018.2
20260510115024 52 0 0.0 0.0 0.00 0.00 0.00 93 1018.2
20260510114538 52 0 0.0 0.0 0.00 0.00 0.00 93 1018.0
20260510114024 51 0 0.0 0.0 0.00 0.00 0.00 94 1017.8
20260510113524 51 0 0.0 0.0 0.00 0.00 0.00 94 1017.6
20260510113035 51 0 0.0 0.0 0.00 0.00 0.00 94 1017.5
20260510112524 51 0 0.0 0.0 0.00 0.00 0.00 94 1017.6
20260510112024 51 0 0.0 0.0 0.00 0.00 0.00 94 1017.3
20260510111540 51 0 0.0 0.0 0.00 0.00 0.00 94 1017.3
20260510111024 51 0 0.0 0.0 0.00 0.00 0.00 95 1017.3
20260510110527 51 0 0.0 0.0 0.00 0.00 0.00 95 1017.2
20260510110040 52 0 0.0 0.0 0.00 0.00 0.00 95 1016.9
20260510105526 52 0 0.0 0.0 0.00 0.00 0.00 96 1016.9
20260510105024 52 0 0.0 0.0 0.00 0.00 0.00 96 1016.8
20260510104538 52 0 0.0 0.0 0.00 0.00 0.00 96 1016.8
20260510104024 52 0 0.0 0.0 0.00 0.00 0.00 97 1016.7
20260510103524 52 0 0.0 0.0 0.00 0.00 0.00 97 1016.5
20260510103043 52 0 0.0 0.0 0.00 0.00 0.00 97 1016.5
20260510102530 52 0 0.0 0.0 0.00 0.00 0.00 97 1016.6
20260510102026 52 0 0.0 0.0 0.00 0.00 0.00 97 1016.5
20260510101541 52 0 0.0 0.0 0.00 0.00 0.00 97 1016.4
20260510101024 52 0 0.0 0.0 0.00 0.00 0.00 97 1016.3
20260510100526 52 0 0.0 0.0 0.00 0.00 0.00 97 1016.0
20260510100050 52 0 0.0 0.0 0.00 0.00 0.00 97 1015.7
20260510095524 53 0 0.0 0.0 0.00 0.00 0.00 97 1016.0
20260510095026 53 0 0.0 0.0 0.00 0.00 0.00 97 1015.9
20260510094544 53 0 0.0 0.0 0.00 0.00 0.00 97 1015.9
20260510094023 53 0 0.0 0.0 0.00 0.00 0.00 97 1016.0
20260510093524 54 0 0.0 0.0 0.00 0.00 0.00 97 1016.0
20260510093037 54 0 0.0 0.0 0.00 0.00 0.00 97 1016.0
20260510092525 54 0 0.0 0.0 0.00 0.00 0.00 97 1015.7
20260510092024 54 0 0.0 0.0 0.00 0.00 0.00 98 1015.9
20260510091537 54 0 0.0 0.0 0.00 0.00 0.00 98 1015.8
20260510091027 55 0 0.0 0.0 0.00 0.00 0.00 98 1015.6
20260510090527 55 0 0.0 0.0 0.00 0.00 0.00 98 1015.6
20260510090037 55 0 0.0 0.0 0.00 0.00 0.00 98 1015.6
20260510085523 55 0 0.0 0.0 0.00 0.00 0.00 98 1015.6
20260510085027 55 0 0.0 0.0 0.00 0.00 0.00 98 1015.4
20260510084550 56 0 0.0 0.0 0.00 0.00 0.00 98 1015.3
20260510084024 56 0 0.0 0.0 0.00 0.00 0.00 98 1015.1
20260510083524 56 0 0.0 0.0 0.00 0.00 0.00 98 1015.1
20260510083041 56 0 0.0 0.0 0.00 0.00 0.00 98 1014.8
20260510082524 56 0 0.0 0.0 0.00 0.00 0.00 98 1014.9
20260510082023 56 0 0.0 0.0 0.00 0.00 0.00 98 1014.7
20260510081537 56 0 0.0 0.0 0.00 0.00 0.00 98 1014.4
20260510081024 56 0 0.0 0.0 0.00 0.00 0.00 98 1014.3
20260510080524 56 0 0.0 0.0 0.00 0.00 0.00 98 1014.3
20260510080038 56 0 0.0 0.0 0.00 0.00 0.00 98 1014.2
20260510075527 57 0 0.0 0.0 0.00 0.00 0.00 98 1014.0
20260510075024 57 0 0.0 0.0 0.00 0.00 0.00 98 1014.0
20260510074536 57 0 0.0 0.0 0.00 0.00 0.00 98 1014.0
20260510074025 57 0 0.0 0.0 0.00 0.00 0.00 98 1014.0
20260510073524 57 0 0.0 0.0 0.00 0.00 0.00 98 1014.2
20260510073035 57 0 0.0 0.0 0.00 0.00 0.00 98 1014.1
20260510072524 57 0 0.0 0.0 0.00 0.00 0.00 98 1014.1
20260510072026 58 0 0.0 0.0 0.00 0.00 0.00 98 1014.2
20260510071547 57 0 0.0 0.0 0.00 0.00 0.00 98 1014.1
20260510071024 57 0 0.0 0.0 0.00 0.00 0.00 98 1014.0
20260510070524 57 0 0.0 0.0 0.00 0.00 0.00 98 1013.9
20260510070042 57 0 0.0 0.0 0.00 0.00 0.00 98 1014.0
20260510065547 57 0 0.0 0.0 0.00 0.00 0.00 98 1014.1
20260510065024 57 0 0.0 0.0 0.00 0.00 0.00 98 1014.0
20260510064538 58 0 0.0 0.0 0.00 0.00 0.00 98 1013.9
20260510064025 58 0 0.0 0.0 0.00 0.00 0.00 98 1014.0
20260510063524 58 0 0.0 0.0 0.00 0.00 0.00 98 1013.9
20260510063038 58 0 0.0 0.0 0.00 0.00 0.00 98 1013.9
20260510062524 58 0 0.0 0.0 0.00 0.00 0.00 98 1014.0
20260510062026 58 0 0.0 0.0 0.00 0.00 0.00 98 1013.8
20260510061543 58 0 0.0 0.0 0.00 0.00 0.00 98 1013.6
20260510061024 58 0 0.0 0.0 0.00 0.00 0.00 98 1013.8
20260510060525 58 0 0.0 0.0 0.00 0.00 0.00 98 1013.8
20260510060052 58 0 0.0 0.0 0.00 0.00 0.00 98 1014.0
20260510055524 58 0 0.0 0.0 0.00 0.00 0.00 98 1014.0
20260510055024 58 0 0.0 0.0 0.00 0.00 0.00 98 1013.9
20260510054539 58 0 0.0 0.0 0.00 0.00 0.00 98 1013.6
20260510054024 59 0 0.0 0.0 0.00 0.00 0.00 97 1013.7
20260510053524 59 0 0.0 0.0 0.00 0.00 0.00 97 1013.6
20260510053035 59 0 0.0 0.0 0.00 0.00 0.00 97 1013.7
20260510052523 59 0 0.0 0.0 0.00 0.00 0.00 97 1013.5
20260510052023 59 0 0.0 0.0 0.00 0.00 0.00 97 1013.2
20260510051542 59 0 0.0 0.0 0.00 0.00 0.00 97 1012.9
20260510051024 59 0 0.0 0.0 0.00 0.00 0.00 97 1012.9
20260510050524 59 0 0.0 0.0 0.00 0.00 0.00 97 1013.0
20260510050039 59 0 0.0 0.0 0.00 0.00 0.00 97 1013.2
20260510045524 59 0 0.0 0.0 0.00 0.00 0.00 97 1013.2
20260510045024 59 0 0.0 0.0 0.00 0.00 0.00 97 1013.2
20260510044540 59 0 0.0 0.0 0.00 0.00 0.00 97 1013.1
20260510044024 59 0 0.0 0.0 0.00 0.00 0.00 97 1012.8
20260510043524 59 0 0.0 0.0 0.00 0.00 0.00 97 1012.9
20260510043047 59 0 0.0 0.0 0.00 0.00 0.00 97 1012.9
20260510042523 60 0 0.0 1.0 0.00 0.00 0.00 97 1012.7
20260510042023 59 0 0.0 1.0 0.00 0.00 0.00 96 1012.5
20260510041549 60 0 0.0 1.0 0.00 0.00 0.00 96 1012.4
20260510041024 60 0 0.0 0.0 0.00 0.00 0.00 96 1012.4
20260510040524 60 0 0.0 0.0 0.00 0.00 0.00 96 1012.3
20260510040043 60 0 0.0 0.0 0.00 0.00 0.00 96 1012.6
20260510035523 60 0 0.0 0.0 0.00 0.00 0.00 96 1012.5
20260510035023 60 0 0.0 0.0 0.00 0.00 0.00 95 1012.8
20260510034537 60 0 0.0 0.0 0.00 0.00 0.00 95 1012.8
20260510034026 60 0 0.0 0.0 0.00 0.00 0.00 95 1012.8
20260510033523 60 0 0.0 1.0 0.00 0.00 0.00 95 1012.7
20260510033037 60 0 0.0 1.0 0.00 0.00 0.00 94 1012.1
20260510032523 60 0 0.0 0.0 0.00 0.00 0.00 93 1012.9
20260510032024 61 0 0.0 0.0 0.00 0.00 0.00 93 1013.1
20260510031536 61 0 0.0 6.0 0.00 0.00 0.00 93 1013.4
20260510031024 61 0 0.0 8.0 0.00 0.00 0.00 92 1013.4
20260510030527 61 0 0.0 18.0 0.00 0.00 0.00 91 1013.6
20260510030041 62 0 0.0 18.0 0.00 0.00 0.00 90 1013.8
20260510025523 62 337 2.0 21.0 0.00 0.00 0.00 89 1013.6
20260510025026 64 314 2.0 23.0 0.00 0.00 0.00 86 1013.2
20260510024551 65 205 6.0 23.0 0.00 0.00 0.00 81 1012.8
20260510024026 67 0 3.0 23.0 0.00 0.00 0.00 75 1012.1
20260510023523 68 280 0.0 4.0 0.00 0.00 0.00 71 1012.1
20260510023034 67 0 0.0 0.0 0.00 0.00 0.00 75 1010.0
20260510022523 67 0 0.0 0.0 0.00 0.00 0.00 76 1010.0
20260510022020 66 0 0.0 0.0 0.00 0.00 0.00 76 1009.8
20260510021536 66 0 0.0 0.0 0.00 0.00 0.00 75 1009.7
20260510021024 66 0 0.0 0.0 0.00 0.00 0.00 75 1009.5
20260510020525 66 0 0.0 0.0 0.00 0.00 0.00 74 1009.4
20260510020047 67 0 0.0 0.0 0.00 0.00 0.00 73 1009.4
20260510015523 67 0 0.0 0.0 0.00 0.00 0.00 72 1009.4
20260510015023 67 0 0.0 0.0 0.00 0.00 0.00 72 1009.4
20260510014539 67 0 0.0 0.0 0.00 0.00 0.00 71 1009.3
20260510014024 68 0 0.0 0.0 0.00 0.00 0.00 71 1009.3
20260510013524 68 0 0.0 0.0 0.00 0.00 0.00 70 1009.2
20260510013041 68 0 0.0 0.0 0.00 0.00 0.00 68 1009.0
20260510012523 69 0 0.0 0.0 0.00 0.00 0.00 66 1009.1
20260510012023 69 0 0.0 0.0 0.00 0.00 0.00 66 1009.0
20260510011539 70 0 0.0 0.0 0.00 0.00 0.00 64 1009.0
20260510011024 71 0 0.0 0.0 0.00 0.00 0.00 62 1009.1
20260510010525 71 0 0.0 0.0 0.00 0.00 0.00 61 1009.1
20260510010050 72 0 0.0 0.0 0.00 0.00 0.00 59 1009.1
20260510005523 73 0 0.0 0.0 0.00 0.00 0.00 58 1009.0
20260510005023 74 0 0.0 0.0 0.00 0.00 0.00 58 1008.9
20260510004541 75 0 0.0 0.0 0.00 0.00 0.00 57 1009.0
20260510004027 77 0 0.0 0.0 0.00 0.00 0.00 56 1008.9
20260510003525 78 0 0.0 0.0 0.00 0.00 0.00 52 1008.9
20260510003039 79 0 0.0 0.0 0.00 0.00 0.00 51 1008.8
20260510002524 80 0 0.0 0.0 0.00 0.00 0.00 50 1008.7
20260510002023 80 0 0.0 0.0 0.00 0.00 0.00 49 1008.7
20260510001537 79 0 0.0 0.0 0.00 0.00 0.00 52 1008.7
20260510001023 79 0 0.0 0.0 0.00 0.00 0.00 50 1008.6
20260510000524 79 0 0.0 0.0 0.00 0.00 0.00 49 1008.7
20260510000042 79 0 0.0 0.0 0.00 0.00 0.00 47 1008.6
20260509235524 80 0 0.0 0.0 0.00 0.01 0.00 46 1008.6
20260509235023 80 0 0.0 0.0 0.00 0.01 0.00 46 1008.5
20260509234550 80 0 0.0 0.0 0.00 0.01 0.00 44 1008.6
20260509234024 80 0 0.0 0.0 0.00 0.01 0.00 44 1008.5
20260509233523 80 0 0.0 0.0 0.00 0.01 0.00 44 1008.6
20260509233036 80 0 0.0 0.0 0.00 0.01 0.00 44 1008.5
20260509232526 81 0 0.0 0.0 0.00 0.01 0.00 44 1008.6
20260509232024 81 0 0.0 0.0 0.00 0.01 0.00 43 1008.6
20260509231538 81 0 0.0 0.0 0.00 0.01 0.00 43 1008.6
20260509231023 81 0 0.0 0.0 0.00 0.01 0.00 42 1008.7
20260509230525 82 0 0.0 0.0 0.00 0.01 0.00 41 1008.6
20260509230038 82 0 0.0 0.0 0.00 0.01 0.00 40 1008.6
20260509225523 83 0 0.0 0.0 0.00 0.01 0.00 40 1008.6
20260509225026 83 0 0.0 0.0 0.00 0.01 0.00 40 1008.5
20260509224538 83 0 0.0 0.0 0.00 0.01 0.00 41 1008.5
20260509224023 82 0 0.0 0.0 0.00 0.01 0.00 40 1008.5
20260509223523 83 0 0.0 0.0 0.00 0.01 0.00 40 1008.6
20260509223038 83 0 0.0 0.0 0.00 0.01 0.00 40 1008.5
20260509222523 83 0 0.0 0.0 0.00 0.01 0.00 42 1008.7
20260509222023 83 0 0.0 0.0 0.00 0.01 0.00 41 1008.7
20260509221600 83 0 0.0 0.0 0.00 0.01 0.00 39 1008.7
20260509221024 83 0 0.0 0.0 0.00 0.01 0.00 39 1008.7
20260509220524 83 0 0.0 0.0 0.00 0.01 0.00 38 1008.6
20260509220036 83 0 0.0 0.0 0.00 0.01 0.00 40 1008.6
20260509215520 83 0 0.0 1.0 0.00 0.01 0.00 38 1008.6
20260509215023 83 0 0.0 1.0 0.00 0.01 0.00 41 1008.6
20260509214540 83 0 0.0 1.0 0.00 0.01 0.00 39 1008.7
20260509214023 83 0 0.0 0.0 0.00 0.01 0.00 42 1008.7
20260509213526 82 0 0.0 0.0 0.00 0.01 0.00 40 1008.8
20260509213038 82 0 0.0 0.0 0.00 0.01 0.00 42 1008.7
20260509212528 82 0 0.0 0.0 0.00 0.01 0.00 42 1008.8
20260509212024 82 0 0.0 0.0 0.00 0.01 0.00 42 1008.7
20260509211538 82 0 0.0 6.0 0.00 0.01 0.00 41 1008.8
20260509211024 81 0 0.0 6.0 0.00 0.01 0.00 42 1008.9
20260509210525 82 337 0.0 5.0 0.00 0.01 0.00 42 1009.0
20260509210037 82 0 0.0 1.0 0.00 0.01 0.00 41 1009.0
20260509205525 82 0 0.0 1.0 0.00 0.01 0.00 41 1009.0
20260509205025 83 0 0.0 2.0 0.00 0.01 0.00 42 1009.0
20260509204535 82 0 0.0 2.0 0.00 0.01 0.00 42 1009.0